Regional Weather Roundup
Issued by NWS Jackson, KY

Home | Current Version | Previous Version | Graphics & Text | Print | Product List | Glossary On
Versions: 1 2 3 4 5 6 7 8 9 10 11 12 13 14 15 16 17 18 19 20 21 22 23 24 25 26 27 28 29 30 31 32 33 34 35 36 37 38 39 40 41 42 43 44 45 46 47 48 49 50
000
ASUS43 KJKL 300110
RWRJKL

EAST KENTUCKY HOURLY WEATHER ROUNDUP
NATIONAL WEATHER SERVICE JACKSON KY
900 PM EDT FRI AUG 29 2014

NOTE: "FAIR" INDICATES FEW OR NO CLOUDS BELOW 12,000 FEET WITH
NO SIGNIFICANT WEATHER AND/OR OBSTRUCTIONS TO VISIBILITY.

* THESE REPORTS ARE NOT UNDER NWS QUALITY CONTROL AND MAY NOT
  REPORT WEATHER SUCH AS PRECIPITATION AND FOG.

KYZ079-080-083-085-087-088-110-112-115-119-120-300200
...EASTERN KENTUCKY...

CITY           SKY/WX    TMP DP  RH WIND       PRES   REMARKS
JACKSON        CLEAR     76  71  85 CALM      30.09R
LONDON         CLEAR     81  71  71 CALM      30.07R
SOMERSET*      CLEAR     75  68  78 CALM      30.06R
MONTICELLO*    PTCLDY    74  71  90 CALM      30.07R
WILLIAMSBURG*  CLEAR     75  73  94 CALM      30.07R
MIDDLESBORO*   CLEAR     77  69  75 W3        30.08R
HARLAN APT*    MOCLDY    75  68  78 MISG      30.10R
HAZARD APT*    CLEAR     75  72  88 CALM      30.09R
PIKEVILLE APT* CLEAR     72  70  94 S6        30.10R
BIG SANDY*     MOCLDY    74  72  92 CALM      30.08R
MOREHEAD APT*  CLOUDY    77  70  78 CALM      30.07S
$$

KYZ035-036-041-042-044-050-067-078-099-300200
...CENTRAL KENTUCKY...

CITY           SKY/WX    TMP DP  RH WIND       PRES   REMARKS
MT STERLING*   CLEAR     79  72  78 SE3       30.07R
FLEMING/MASON* CLEAR     77  72  83 SE5       30.06R
DANVILLE*      PTCLDY    77  64  65 CALM      30.06R
RICHMOND*      PTCLDY    77  66  69 SE3       30.05R
LEXINGTON      CLEAR     81  69  67 SE6       30.04R
FRANKFORT      PTCLDY    78  66  66 SW3       30.02R
$$

KYZ091>093-OHZ055-061-077-WVZ005-015-034-035-042-300200
...SOUTHERN OHIO/WEST VIRGINIA...

CITY           SKY/WX    TMP DP  RH WIND       PRES   REMARKS
COVINGTON      MOCLDY    80  69  69 SE8       30.03R
COLUMBUS       MOCLDY    79  62  56 E7        30.05R
DAYTON         MOCLDY    79  65  62 SE8       30.04R
WILMINGTON     PTCLDY    76  65  68 SE5       30.05R
HUNTINGTON     MOCLDY    78  70  76 CALM      30.05R
CHARLESTON     PTCLDY    76  72  87 CALM      30.06R
PINEVILLE*     PTCLDY    74  73  98 MISG      30.18R
BECKLEY        CLEAR     73  64  73 SE8       30.18R
BLUEFIELD      CLEAR     74  65  73 VRB7      30.22R
$$

VAZ002-007-008-TNZ017-027-036-066-071-300200
...SOUTHWEST VIRGINIA/EAST TENNESSEE...

CITY           SKY/WX    TMP DP  RH WIND       PRES   REMARKS
WISE*          MOCLDY    75  64  69 S3        30.19R
JONESVILLE*      N/A     77  72  83 CALM      30.11R
ABINGDON*      MOCLDY    74  71  91 E5        30.16R
BRISTOL        PTCLDY    73  69  87 N3        30.12R
KNOXVILLE      PTCLDY    82  63  52 CALM      30.05R
OAK RIDGE      CLEAR     79  68  69 CALM      30.07R
CROSSVILLE     PTCLDY    74  64  71 SW3       30.11R
NASHVILLE      PTCLDY    83  61  47 SE5       30.00S
$$

...KEY TO REMARKS...
VSB - VISIBILITY IN MILES
WCI - WIND CHILL INDEX
HX  - HEAT INDEX

$$



USA.gov is the U.S. government's official web portal to all federal, state and local government web resources and services.